Latest Weather Observations for Portland Airport

IDV60801

Issued at 3:35 am EST Friday 19 September 2014 (issued every 30 minutes, with the page automatically refreshed every 10 minutes)

About weather observations | Map of weather stations | Latest weather observations for VIC | Other Formats
Station Details ID: 090171 Name: CASHMORE AIRPORT Lat: -38.31 Lon: 141.47 Height: 80.9 m
Data from the previous 72 hours. | See also: Recent months at Portland Airport
Date/Time
EST
Temp
°C
App
Temp
°C
Dew
Point
Rel
Hum
%
Delta-T
°C
Wind Press
QNH
hPa
Press
MSL
hPa
Rain
since 9 am
mm
Dir
 
Spd
km/h
Gust
km/h
Spd
kts
Gust
kts
19/03:30am 5.9 3.0 4.9 93 0.4 WSW 9 9 5 5 1025.0 1025.1 0.0
19/03:00am 6.0 3.1 4.8 92 0.5 WSW 9 11 5 6 1025.2 1025.2 0.0
19/02:30am 6.1 2.4 4.6 90 0.6 WSW 13 15 7 8 1025.3 1025.3 0.0
19/02:00am 5.5 2.8 3.7 88 0.8 W 7 9 4 5 1025.6 1025.6 0.0
19/01:30am 5.3 2.5 3.3 87 0.8 W 7 9 4 5 1025.8 1025.8 0.0
19/01:00am 5.2 2.0 3.2 87 0.8 W 9 11 5 6 1026.0 1026.0 0.0
19/12:30am 5.7 3.0 3.9 88 0.8 W 7 9 4 5 1026.1 1026.1 0.0
19/12:00am 6.5 4.1 5.1 91 0.6 W 7 9 4 5 1026.0 1026.0 0.0
 
Date/Time
EST
Temp
°C
App
Temp
°C
Dew
Point
Rel
Hum
%
Delta-T
°C
Wind Press
QNH
hPa
Press
MSL
hPa
Rain
since 9 am
mm
Dir
 
Spd
km/h
Gust
km/h
Spd
kts
Gust
kts
18/11:30pm 5.9 4.3 4.7 92 0.5 SW 2 9 1 5 1026.2 1026.2 0.0
18/11:00pm 5.8 3.4 4.4 91 0.6 SW 6 7 3 4 1026.4 1026.4 0.0
18/10:30pm 6.1 3.8 4.6 90 0.6 SW 6 7 3 4 1026.5 1026.5 0.0
18/10:00pm 6.2 3.8 4.5 89 0.7 SW 6 7 3 4 1026.6 1026.6 0.0
18/09:30pm 6.5 4.0 4.5 87 0.9 SW 7 7 4 4 1026.4 1026.4 0.0
18/09:00pm 7.1 4.2 4.4 83 1.2 SW 9 9 5 5 1026.4 1026.4 0.0
18/08:30pm 8.8 6.3 5.0 77 1.7 SW 7 9 4 5 1026.3 1026.3 0.0
18/08:00pm 10.1 7.0 5.7 74 2.0 SSW 11 17 6 9 1026.1 1026.1 0.0
18/07:30pm 9.7 7.6 5.7 76 1.8 S 6 7 3 4 1025.9 1025.9 0.0
18/07:00pm 10.7 8.5 6.3 74 2.1 SSE 7 13 4 7 1025.6 1025.6 0.0
18/06:30pm 10.7 8.4 5.9 72 2.2 S 7 13 4 7 1025.6 1025.6 0.0
18/06:00pm 11.4 8.8 6.3 71 2.4 S 9 13 5 7 1025.6 1025.6 0.0
18/05:30pm 11.6 8.9 5.5 66 2.8 S 9 15 5 8 1025.5 1025.5 0.0
18/05:00pm 11.6 9.0 5.9 68 2.7 SSW 9 15 5 8 1025.2 1025.2 0.0
18/04:30pm 11.3 7.0 5.4 67 2.7 S 17 22 9 12 1025.2 1025.2 0.0
18/04:00pm 12.1 8.5 5.0 62 3.3 SSW 13 19 7 10 1024.9 1025.0 0.0
18/03:30pm 13.1 9.4 4.5 56 4.0 S 13 19 7 10 1024.8 1024.9 0.0
18/03:00pm 12.8 8.7 4.3 56 3.9 S 15 20 8 11 1024.8 1024.9 0.0
18/02:30pm 12.9 9.4 5.6 61 3.4 S 13 20 7 11 1024.8 1024.9 0.0
18/02:00pm 12.5 8.2 5.4 62 3.3 S 17 22 9 12 1024.8 1024.9 0.0
18/01:30pm 12.6 8.2 4.8 59 3.6 S 17 26 9 14 1024.8 1024.9 0.0
18/01:00pm 13.1 9.4 6.2 63 3.3 S 15 26 8 14 1024.9 1025.0 0.0
18/12:30pm 12.8 8.4 6.4 65 3.1 S 19 26 10 14 1025.3 1025.3 0.0
18/12:00pm 12.8 8.5 7.0 68 2.8 S 19 28 10 15 1025.0 1025.1 0.0
18/11:30am 12.2 8.9 6.5 68 2.7 SW 13 19 7 10 1025.0 1025.1 0.0
18/11:00am 11.9 8.0 5.3 64 3.0 S 15 28 8 15 1025.2 1025.2 0.0
18/10:30am 12.3 8.3 6.8 69 2.6 S 17 28 9 15 1025.2 1025.2 0.0
18/10:00am 12.4 8.3 6.2 66 2.9 SW 17 24 9 13 1025.0 1025.1 0.0
18/09:30am 12.0 6.9 5.9 66 2.9 SW 22 33 12 18 1025.0 1025.1 0.0
18/09:00am 11.5 7.6 5.2 65 2.9 SSW 15 24 8 13 1024.8 1024.9 2.2
18/08:30am 10.6 6.5 6.0 73 2.1 SW 17 24 9 13 1024.5 1024.6 2.2
18/08:00am 10.2 7.2 6.2 76 1.9 WSW 11 15 6 8 1024.2 1024.3 2.2
18/07:30am 8.3 4.9 5.9 85 1.1 W 13 15 7 8 1023.9 1024.0 2.2
18/07:00am 8.2 4.5 6.2 87 0.9 WSW 15 20 8 11 1023.8 1023.9 2.2
18/06:30am 8.9 5.6 6.2 83 1.2 SSW 13 20 7 11 1023.4 1023.5 2.2
18/06:00am 9.0 5.4 5.0 76 1.8 SW 13 19 7 10 1022.9 1023.0 2.2
18/05:30am 9.0 5.2 5.7 80 1.5 SSW 15 26 8 14 1022.7 1022.8 2.2
18/05:00am 8.8 5.3 5.5 80 1.5 SSW 13 19 7 10 1022.4 1022.5 2.2
18/04:30am 9.2 5.9 6.6 84 1.2 SSW 13 24 7 13 1022.3 1022.4 2.2
18/04:00am 8.5 4.8 6.1 85 1.1 WSW 15 22 8 12 1022.1 1022.2 2.2
18/03:30am 9.0 5.3 6.4 84 1.2 SSW 15 26 8 14 1022.1 1022.2 2.2
18/03:00am 8.7 4.7 6.5 86 1.0 SSW 17 28 9 15 1022.0 1022.1 2.2
18/02:56am 8.7 5.1 6.8 88 0.9 SSW 15 28 8 15 1021.9 1022.0 2.2
18/02:36am 8.9 5.0 6.9 87 0.9 SW 17 32 9 17 1022.1 1022.2 2.0
18/02:30am 8.9 5.9 6.0 82 1.3 SW 11 20 6 11 1022.0 1022.1 1.8
18/02:00am 8.2 4.0 5.7 84 1.1 SW 17 22 9 12 1021.9 1022.0 1.8
18/01:56am 8.4 4.3 6.0 85 1.1 SW 17 22 9 12 1021.9 1022.0 1.8
18/01:37am 8.9 6.2 7.2 89 0.8 SSW 11 20 6 11 1022.1 1022.2 1.8
18/01:30am 8.9 6.2 7.4 90 0.7 S 11 17 6 9 1022.0 1022.1 1.4
18/01:10am 8.8 4.9 7.3 90 0.7 SW 17 24 9 13 1022.1 1022.2 1.4
18/01:00am 8.7 3.8 6.8 88 0.9 WSW 22 33 12 18 1022.1 1022.2 1.4
18/12:53am 9.1 4.1 6.5 84 1.2 WSW 22 33 12 18 1022.1 1022.2 1.4
18/12:30am 9.8 6.0 5.8 76 1.8 SW 15 26 8 14 1022.0 1022.1 1.2
18/12:00am 9.8 4.8 4.8 71 2.2 SW 20 28 11 15 1022.0 1022.1 1.2
 
Date/Time
EST
Temp
°C
App
Temp
°C
Dew
Point
Rel
Hum
%
Delta-T
°C
Wind Press
QNH
hPa
Press
MSL
hPa
Rain
since 9 am
mm
Dir
 
Spd
km/h
Gust
km/h
Spd
kts
Gust
kts
17/11:30pm 9.1 5.0 6.4 83 1.3 SW 17 20 9 11 1022.1 1022.2 1.2
17/11:00pm 9.3 5.1 5.5 77 1.7 SW 17 24 9 13 1022.1 1022.2 1.2
17/10:30pm 9.0 3.3 5.0 76 1.8 SW 24 33 13 18 1022.0 1022.1 1.2
17/10:05pm 8.5 4.4 6.3 86 1.0 WSW 17 22 9 12 1022.0 1022.1 1.2
17/10:00pm 8.4 3.7 6.2 86 1.0 SW 20 33 11 18 1022.0 1022.1 1.2
17/09:46pm 9.0 3.9 6.1 82 1.3 SW 22 33 12 18 1022.2 1022.3 1.0
17/09:30pm 8.5 3.3 5.3 80 1.4 WSW 22 33 12 18 1021.9 1022.0 0.6
17/09:00pm 8.9 4.1 5.6 80 1.5 WSW 20 32 11 17 1021.5 1021.6 0.6
17/08:35pm 8.0 3.1 5.3 83 1.2 WSW 20 28 11 15 1021.4 1021.5 0.6
17/08:30pm 7.9 2.4 5.7 86 1.0 WSW 24 43 13 23 1021.5 1021.6 0.6
17/08:18pm 8.5 3.1 6.3 86 1.0 SW 24 39 13 21 1021.6 1021.7 0.6
17/08:00pm 9.2 4.5 5.9 80 1.5 SW 20 30 11 16 1021.4 1021.5 0.4
17/07:30pm 9.6 4.4 5.6 76 1.8 WSW 22 32 12 17 1020.9 1021.0 0.4
17/07:00pm 9.2 4.6 5.8 79 1.6 WSW 19 28 10 15 1020.5 1020.6 0.4
17/06:30pm 9.6 5.7 5.2 74 2.0 SW 15 22 8 12 1020.3 1020.4 0.4
17/06:00pm 9.5 4.0 3.9 68 2.5 WSW 22 30 12 16 1020.1 1020.2 0.4
17/05:30pm 9.9 3.5 5.3 73 2.1 WSW 28 39 15 21 1019.8 1019.9 0.4
17/05:00pm 9.5 4.6 5.3 75 1.9 WSW 20 26 11 14 1019.5 1019.6 0.4
17/04:30pm 9.8 4.3 6.0 77 1.8 WSW 24 33 13 18 1019.2 1019.3 0.4
17/04:00pm 9.7 2.6 5.5 75 1.9 WSW 32 48 17 26 1019.0 1019.1 0.2
17/03:54pm 10.8 4.2 4.0 63 3.0 WSW 28 48 15 26 1018.7 1018.8 0.2
17/03:30pm 11.1 5.4 5.0 66 2.8 WSW 24 35 13 19 1018.7 1018.8 0.2
17/03:00pm 10.7 3.8 4.8 67 2.7 WSW 30 44 16 24 1018.5 1018.6 0.2
17/02:30pm 11.8 6.3 6.1 68 2.7 SW 24 37 13 20 1018.2 1018.3 0.2
17/02:06pm 12.4 5.3 3.6 55 3.9 WSW 30 48 16 26 1017.9 1018.0 0.2
17/02:00pm 12.4 5.0 3.9 56 3.8 SW 32 43 17 23 1017.9 1018.0 0.2
17/01:32pm 12.4 4.9 3.4 54 4.0 WSW 32 50 17 27 1017.7 1017.8 0.2
17/01:30pm 12.4 5.0 3.9 56 3.8 SW 32 48 17 26 1017.6 1017.7 0.2
17/01:25pm 11.9 4.9 4.2 59 3.5 SW 30 48 16 26 1017.8 1017.9 0.2
17/01:00pm 12.1 5.1 5.9 66 2.9 SW 32 44 17 24 1017.7 1017.8 0.2
17/12:32pm 10.1 3.8 5.9 75 1.9 WSW 28 46 15 25 1017.8 1017.9 0.2
17/12:30pm 10.5 4.4 6.8 78 1.8 WSW 28 44 15 24 1017.8 1017.9 0.2
17/12:00pm 11.3 4.2 6.6 73 2.2 SW 33 57 18 31 1017.7 1017.8 0.0
17/11:30am 11.7 4.8 6.4 70 2.5 WSW 32 50 17 27 1017.5 1017.6 0.0
17/11:00am 12.0 4.3 5.2 63 3.1 WSW 35 56 19 30 1017.2 1017.2 0.0
17/10:39am 10.9 3.9 6.1 72 2.2 WSW 32 50 17 27 1017.4 1017.5 0.0
17/10:30am 11.9 3.6 4.4 60 3.4 WSW 37 50 20 27 1017.1 1017.1 0.0
17/10:16am 11.8 5.2 4.3 60 3.4 WSW 28 50 15 27 1017.1 1017.1 0.0
17/10:00am 11.5 3.9 3.8 59 3.4 WSW 33 48 18 26 1017.1 1017.1 0.0
17/09:30am 11.2 4.4 3.3 58 3.5 WSW 28 41 15 22 1016.8 1016.8 0.0
17/09:00am 11.0 3.9 3.3 59 3.4 WSW 30 43 16 23 1016.6 1016.6 2.4
17/08:30am 11.0 4.4 4.2 63 3.1 SW 28 46 15 25 1016.2 1016.2 2.4
17/08:00am 10.3 3.4 6.3 76 1.9 WSW 32 43 17 23 1015.7 1015.7 2.4
17/07:39am 10.6 3.2 3.9 63 3.0 WSW 32 50 17 27 1015.3 1015.3 2.4
17/07:30am 10.4 3.5 4.8 68 2.5 WSW 30 43 16 23 1015.2 1015.2 2.4
17/07:00am 9.8 3.6 6.0 77 1.8 WSW 28 46 15 25 1014.8 1014.8 2.4
17/06:59am 9.9 3.7 6.1 77 1.8 WSW 28 46 15 25 1014.8 1014.8 2.4
17/06:30am 9.6 4.5 6.0 78 1.7 WSW 22 35 12 19 1014.5 1014.5 2.4
17/06:00am 9.4 3.4 7.2 86 1.0 W 28 41 15 22 1014.4 1014.4 2.4
17/05:30am 10.4 4.9 6.0 74 2.0 WSW 24 35 13 19 1014.1 1014.1 2.2
17/05:00am 10.2 4.3 5.6 73 2.1 WSW 26 37 14 20 1014.2 1014.2 2.2
17/04:30am 10.2 5.3 7.1 81 1.5 WSW 22 33 12 18 1014.0 1014.0 2.2
17/04:00am 10.1 5.4 7.7 85 1.2 W 22 32 12 17 1013.6 1013.6 2.2
17/03:30am 9.3 5.0 6.9 85 1.1 W 19 24 10 13 1013.7 1013.7 2.2
17/03:00am 10.1 4.4 6.8 80 1.6 WSW 26 39 14 21 1013.9 1013.9 2.2
17/02:46am 10.5 4.6 7.4 81 1.5 W 28 46 15 25 1013.7 1013.7 2.2
17/02:30am 10.7 5.1 7.0 78 1.8 W 26 33 14 18 1013.7 1013.7 2.2
17/02:00am 10.2 5.8 6.4 77 1.8 WSW 19 28 10 15 1014.0 1014.0 2.2
17/01:30am 10.0 4.9 6.2 77 1.8 WSW 22 33 12 18 1014.3 1014.3 2.2
17/01:00am 9.7 3.4 5.5 75 1.9 W 28 39 15 21 1014.2 1014.2 2.2
17/12:30am 9.9 4.2 6.6 80 1.5 W 26 37 14 20 1014.1 1014.1 2.2
17/12:00am 9.8 4.2 7.1 83 1.3 W 26 32 14 17 1014.1 1014.1 2.2
 
Date/Time
EST
Temp
°C
App
Temp
°C
Dew
Point
Rel
Hum
%
Delta-T
°C
Wind Press
QNH
hPa
Press
MSL
hPa
Rain
since 9 am
mm
Dir
 
Spd
km/h
Gust
km/h
Spd
kts
Gust
kts
16/11:49pm 9.7 3.7 7.1 84 1.2 W 28 43 15 23 1014.0 1014.0 2.2
16/11:33pm 10.2 4.7 9.0 92 0.6 WSW 28 44 15 24 1014.1 1014.1 2.2
16/11:30pm 10.2 5.0 8.8 91 0.7 WSW 26 44 14 24 1014.0 1014.0 2.2
16/11:22pm 10.1 4.9 8.7 91 0.7 WSW 26 32 14 17 1013.9 1013.9 2.2
16/11:14pm 9.9 4.7 8.8 93 0.5 WSW 26 37 14 20 1013.9 1013.9 2.0
16/11:00pm 9.8 3.5 9.0 95 0.4 WSW 32 44 17 24 1013.8 1013.8 2.0
16/10:50pm 10.3 4.2 9.7 96 0.3 WSW 32 41 17 22 1013.6 1013.6 1.6
16/10:48pm 10.4 4.7 9.8 96 0.3 WSW 30 41 16 22 1013.5 1013.5 1.4
16/10:30pm 9.8 7.5 9.0 95 0.4 NW 11 19 6 10 1013.4 1013.4 1.2
16/10:28pm 9.8 7.5 9.0 95 0.4 NW 11 19 6 10 1013.4 1013.4 1.2
16/10:00pm 9.5 7.1 8.7 95 0.4 NNW 11 15 6 8 1013.7 1013.7 1.2
16/09:52pm 9.2 6.7 8.3 94 0.4 NNW 11 15 6 8 1013.7 1013.7 1.2
16/09:35pm 9.3 7.2 8.4 94 0.4 N 9 19 5 10 1013.8 1013.8 1.0
16/09:30pm 9.3 7.2 8.2 93 0.5 N 9 11 5 6 1013.8 1013.8 0.8
16/09:09pm 9.4 7.3 8.2 92 0.6 NW 9 13 5 7 1013.9 1013.9 0.8
16/09:00pm 9.9 7.1 8.7 92 0.6 NW 13 20 7 11 1014.0 1014.0 0.8
16/08:55pm 10.2 6.8 9.0 92 0.6 WNW 17 24 9 13 1014.1 1014.1 0.8
16/08:52pm 10.3 6.5 8.9 91 0.7 WNW 19 24 10 13 1014.1 1014.1 0.8
16/08:39pm 10.8 7.3 8.9 88 0.9 WNW 17 22 9 12 1014.2 1014.2 0.6
16/08:30pm 11.0 8.0 7.9 81 1.5 WNW 13 15 7 8 1014.0 1014.0 0.4
16/08:00pm 9.7 7.8 7.5 86 1.1 W 7 9 4 5 1014.0 1014.0 0.4
16/07:30pm 9.9 7.6 7.5 85 1.1 W 9 11 5 6 1014.0 1014.0 0.4
16/07:00pm 9.8 7.0 7.1 83 1.3 W 11 13 6 7 1013.9 1013.9 0.4
16/06:30pm 10.6 7.5 7.3 80 1.6 W 13 19 7 10 1013.7 1013.7 0.4
16/06:00pm 12.3 8.3 8.2 76 2.0 W 19 28 10 15 1013.6 1013.6 0.4
16/05:30pm 12.4 7.6 7.5 72 2.4 W 22 30 12 16 1013.6 1013.6 0.4
16/05:00pm 12.6 7.5 7.7 72 2.4 W 24 30 13 16 1013.4 1013.4 0.4
16/04:30pm 12.9 7.3 8.8 76 2.1 W 28 35 15 19 1013.2 1013.2 0.4
16/04:00pm 12.9 8.1 9.0 77 2.0 W 24 33 13 18 1013.0 1013.0 0.4
16/03:30pm 12.9 8.3 9.7 81 1.6 W 24 30 13 16 1013.2 1013.2 0.4
16/03:00pm 12.8 9.8 10.5 86 1.2 W 17 22 9 12 1013.3 1013.3 0.4
16/02:38pm 12.2 9.1 10.3 88 1.0 WSW 17 24 9 13 1013.4 1013.4 0.4
16/02:30pm 12.0 9.4 10.6 91 0.7 W 15 20 8 11 1013.5 1013.5 0.4
16/02:09pm 12.0 7.7 9.4 84 1.3 W 22 30 12 16 1013.5 1013.5 0.0
16/02:00pm 12.9 8.4 8.6 75 2.2 W 22 32 12 17 1013.4 1013.4 0.0
16/01:30pm 13.7 9.5 8.3 70 2.7 WSW 20 32 11 17 1013.3 1013.3 0.0
16/01:00pm 13.4 9.2 8.3 71 2.5 W 20 30 11 16 1013.6 1013.6 0.0
16/12:30pm 14.1 10.1 8.9 71 2.6 WSW 20 26 11 14 1013.9 1013.9 0.0
16/12:00pm 13.8 8.9 8.4 70 2.7 W 24 32 13 17 1014.0 1014.0 0.0
16/11:30am 13.8 9.0 9.0 73 2.4 W 24 33 13 18 1014.3 1014.3 0.0
16/11:00am 13.9 9.9 8.9 72 2.5 WSW 20 28 11 15 1014.4 1014.4 0.0
16/10:30am 14.1 10.0 8.5 69 2.8 WSW 20 32 11 17 1014.6 1014.6 0.0
16/10:00am 13.4 9.6 7.6 68 2.9 SW 17 26 9 14 1014.5 1014.5 0.0
16/09:30am 12.5 7.8 5.9 64 3.1 SW 20 30 11 16 1014.5 1014.5 0.0
16/09:00am 12.5 8.5 6.5 67 2.9 SSW 17 24 9 13 1014.4 1014.4 0.0
16/08:30am 11.5 6.8 6.0 69 2.6 SW 20 28 11 15 1014.4 1014.4 0.0
16/08:00am 11.6 8.0 6.7 72 2.3 SW 15 26 8 14 1014.2 1014.2 0.0
16/07:30am 11.3 8.1 7.0 75 2.1 SW 13 20 7 11 1014.1 1014.1 0.0
16/07:00am 11.2 8.4 7.1 76 2.0 SW 11 17 6 9 1013.8 1013.8 0.0
16/06:30am 11.3 8.1 7.0 75 2.1 SSW 13 19 7 10 1013.6 1013.6 0.0
16/06:00am 11.4 8.0 7.5 77 1.9 SSW 15 22 8 12 1013.3 1013.3 0.0
16/05:30am 11.4 7.6 7.7 78 1.8 SSW 17 26 9 14 1013.2 1013.2 0.0
16/05:00am 11.3 8.0 8.2 81 1.5 SW 15 22 8 12 1012.9 1012.9 0.0
16/04:30am 11.3 8.0 8.2 81 1.5 SSW 15 26 8 14 1012.6 1012.6 0.0
16/04:00am 11.3 7.7 8.5 83 1.4 SSW 17 24 9 13 1012.5 1012.5 0.0

Other Formats:

Comma delimited format used in spreadsheet applications
http://www.bom.gov.au/fwo/IDV60801/IDV60801.94828.axf

JavaScript Object Notation format (JSON) in row-major order
http://www.bom.gov.au/fwo/IDV60801/IDV60801.94828.json